Weather History for KOLM - November, 2011

Change the Weather History Date:

Thursday, November 3, 2011

  Actual Average Record
Temperature  
Mean Temperature 42 °F 46 °F  
Max Temperature 51 °F 54 °F 71 °F (1949)
Min Temperature 32 °F 38 °F 18 °F (2002)
Degree Days  
Heating Degree Days 23 19  
Month to date heating degree days 71 56  
Since 1 July heating degree days 839 850  
Cooling Degree Days 0 0  
Month to date cooling degree days 0 0  
Year to date cooling degree days 59 106  
Moisture  
Dew Point 37 °F    
Average Humidity 78    
Maximum Humidity 100    
Minimum Humidity 56    
Precipitation  
Precipitation T in 0.25 in 1.83 in (1983)
Month to date precipitation 0.49 0.73  
Year to date precipitation 37.71 34.64  
Sea Level Pressure  
Sea Level Pressure 29.88 in    
Wind  
Wind Speed 3 mph (SW)    
Max Wind Speed 10 mph    
Max Gust Speed 12 mph    
Visibility 6 miles    
Events Fog , Rain    
T = Trace of Precipitation, MM = Missing Value Source: NWS Daily Summary

Daily Weather History Graph

Daily Weather History Graph

Search for Another Location

Airport or City:

Trip Planner

Search our weather history database for the weather conditions in past years. The results will help you decide how hot, cold, wet, or windy it might be!

Date:

Astronomy

Nov. 03, 2011 Rise Set
Actual Time 7:56 AM PDT 5:52 PM PDT
Civil Twilight 7:24 AM PDT 6:24 PM PDT
Nautical Twilight 6:48 AM PDT 7:00 PM PDT
Astronomical Twilight 6:13 AM PDT 7:36 PM PDT
Moon 2:41 PM PDT (11/3) 12:49 AM PDT (11/3)
Length of Visible Light 10h 59m
Length of Day
9h 55m
First Quarter, 61% of the Moon is Illuminated
Nov 3
First Quarter
Nov 10
Full
Nov 18
Last Quarter
Nov 24
New
Dec 2
First Quarter

Hourly Weather History & Observations

Time (PDT) Temp. Windchill Dew Point Humidity Pressure Visibility Wind Dir Wind Speed Gust Speed Precip Events Conditions
12:52 AM 42.8 °F 40.1 °F 41.0 °F 93% 29.87 in 7.0 mi SW 4.6 mph - 0.01 in   Overcast
12:54 AM 42.1 °F 39.2 °F 41.0 °F 96% 29.88 in 7.0 mi WSW 4.6 mph - 0.01 in   Overcast
1:54 AM 42.8 °F 39.3 °F 42.8 °F 100% 29.88 in 10.0 mi SSW 5.8 mph - N/A   Overcast
2:54 AM 41.0 °F 37.1 °F 39.9 °F 96% 29.87 in 10.0 mi SSW 5.8 mph - N/A   Scattered Clouds
3:54 AM 39.9 °F 36.7 °F 39.0 °F 97% 29.87 in 10.0 mi West 4.6 mph - N/A   Scattered Clouds
4:08 AM 41.0 °F 39.0 °F 39.2 °F 93% 29.87 in 10.0 mi NW 3.5 mph - N/A   Mostly Cloudy
4:54 AM 39.0 °F 35.7 °F 37.9 °F 96% 29.87 in 10.0 mi SW 4.6 mph - N/A   Partly Cloudy
5:54 AM 39.9 °F 35.8 °F 39.0 °F 97% 29.89 in 10.0 mi WSW 5.8 mph - N/A   Mostly Cloudy
6:03 AM 39.2 °F - 39.2 °F 100% 29.88 in 8.0 mi Calm Calm - 0.00 in Rain Light Rain
6:30 AM 37.4 °F - 35.6 °F 93% 29.87 in 1.8 mi Calm Calm - 0.00 in   Mostly Cloudy
6:35 AM 37.4 °F - 35.6 °F 93% 29.88 in 0.8 mi Calm Calm - 0.00 in   Scattered Clouds
6:45 AM 35.6 °F - 35.6 °F 100% 29.88 in 0.5 mi Calm Calm - 0.00 in Fog Fog
6:54 AM 35.1 °F 32.2 °F 35.1 °F 100% 29.88 in 0.5 mi SW 3.5 mph - 0.00 in Fog Fog
7:00 AM 35.6 °F 30.7 °F 35.6 °F 100% 29.88 in 1.2 mi SSW 5.8 mph - N/A   Scattered Clouds
7:02 AM 35.6 °F 30.7 °F 35.6 °F 100% 29.88 in 3.0 mi SSW 5.8 mph - N/A   Scattered Clouds
7:39 AM 35.6 °F - 35.6 °F 100% 29.88 in 1.5 mi Calm Calm - N/A   Partly Cloudy
7:41 AM 35.6 °F 32.8 °F 35.6 °F 100% 29.87 in 1.0 mi WSW 3.5 mph - N/A   Mist
7:54 AM 33.8 °F 29.6 °F 33.8 °F 100% 29.88 in 3.0 mi South 4.6 mph - N/A Fog Patches of Fog
8:54 AM 37.0 °F - 36.0 °F 96% 29.89 in 7.0 mi Calm Calm - N/A Fog Shallow Fog
9:28 AM 39.2 °F 35.0 °F 37.4 °F 93% 29.88 in 3.0 mi WSW 5.8 mph - N/A   Mostly Cloudy
9:54 AM 39.9 °F - 39.9 °F 100% 29.89 in 3.0 mi Calm Calm - N/A   Overcast
10:54 AM 43.0 °F 38.8 °F 41.0 °F 93% 29.89 in 10.0 mi WSW 6.9 mph - N/A   Mostly Cloudy
11:19 AM 44.6 °F 40.7 °F 42.8 °F 93% 29.88 in 10.0 mi SW 6.9 mph - N/A   Scattered Clouds
11:37 AM 46.4 °F 43.5 °F 42.8 °F 87% 29.88 in 10.0 mi SSW 5.8 mph - N/A   Mostly Cloudy
11:54 AM 46.0 °F 44.8 °F 42.1 °F 86% 29.88 in 10.0 mi Variable 3.5 mph - N/A   Mostly Cloudy
11:59 AM 46.4 °F 44.3 °F 42.8 °F 87% 29.88 in 10.0 mi Variable 4.6 mph - N/A   Mostly Cloudy
12:54 PM 48.9 °F - 42.1 °F 77% 29.87 in 10.0 mi Variable 4.6 mph - N/A   Mostly Cloudy
1:01 PM 48.2 °F - 41.0 °F 76% 29.86 in 10.0 mi SW 5.8 mph - N/A   Mostly Cloudy
1:54 PM 50.0 °F - 41.0 °F 71% 29.85 in 10.0 mi SW 4.6 mph - N/A   Mostly Cloudy
1:56 PM 50.0 °F - 41.0 °F 71% 29.85 in 10.0 mi Variable 4.6 mph - N/A   Mostly Cloudy
2:54 PM 50.0 °F - 39.0 °F 66% 29.85 in 10.0 mi South 8.1 mph - N/A   Mostly Cloudy
3:01 PM 50.0 °F - 39.2 °F 66% 29.85 in 10.0 mi SSW 5.8 mph - N/A   Partly Cloudy
3:54 PM 50.0 °F - 36.0 °F 59% 29.85 in 10.0 mi WNW 3.5 mph - N/A   Mostly Cloudy
4:54 PM 46.9 °F - 37.9 °F 71% 29.85 in 10.0 mi SW 5.8 mph - 0.00 in Rain Light Rain
5:54 PM 42.8 °F 39.3 °F 37.4 °F 81% 29.86 in 10.0 mi WNW 5.8 mph - N/A   Clear
6:54 PM 39.0 °F - 37.0 °F 93% 29.88 in 10.0 mi Calm Calm - N/A   Partly Cloudy
7:54 PM 37.9 °F - 36.0 °F 93% 29.88 in 10.0 mi Calm Calm - N/A   Clear
8:31 PM 35.6 °F - 35.6 °F 100% 29.88 in 2.5 mi Calm Calm - N/A   Scattered Clouds
8:39 PM 37.4 °F - 35.6 °F 93% 29.88 in 4.0 mi Calm Calm - N/A   Scattered Clouds
8:48 PM 35.6 °F - 33.8 °F 93% 29.88 in 1.8 mi Calm Calm - N/A   Scattered Clouds
8:54 PM 34.0 °F - 33.1 °F 96% 29.89 in 1.5 mi Calm Calm - N/A   Partly Cloudy
9:03 PM 33.8 °F - 33.8 °F 100% 29.88 in 1.0 mi Calm Calm - N/A   Partly Cloudy
9:09 PM 33.8 °F - 33.8 °F 100% 29.88 in 0.8 mi Calm Calm - N/A   Scattered Clouds
9:27 PM 35.6 °F - 33.8 °F 93% 29.89 in 1.0 mi Calm Calm - N/A   Partly Cloudy
9:34 PM 35.6 °F - 33.8 °F 93% 29.89 in 0.8 mi Calm Calm - N/A   Partly Cloudy
9:54 PM 32.0 °F - 32.0 °F 100% 29.89 in 0.5 mi Calm Calm - N/A Fog Fog
10:17 PM 33.8 °F - 32.0 °F 93% 29.89 in 0.5 mi Calm Calm - N/A Fog Fog
10:22 PM 33.8 °F - 32.0 °F 93% 29.89 in 0.5 mi Calm Calm - N/A Fog Fog
10:24 PM 33.8 °F - 32.0 °F 93% 29.89 in 0.5 mi Calm Calm - N/A Fog Fog
10:54 PM 33.1 °F - 32.0 °F 96% 29.90 in 2.0 mi Calm Calm - N/A   Mostly Cloudy
10:56 PM 32.0 °F - 32.0 °F 100% 29.89 in 4.0 mi Calm Calm - N/A   Mostly Cloudy
11:06 PM 33.8 °F - 30.2 °F 87% 29.89 in 1.8 mi Calm Calm - N/A   Mostly Cloudy
11:14 PM 32.0 °F - 30.2 °F 93% 29.89 in 1.0 mi Calm Calm - N/A   Overcast
11:25 PM 33.8 °F - 33.8 °F 100% 29.89 in 2.0 mi Calm Calm - N/A   Mostly Cloudy
11:41 PM 33.8 °F - 33.8 °F 100% 29.89 in 5.0 mi Calm Calm - N/A   Mostly Cloudy
11:54 PM 33.1 °F - 30.9 °F 92% 29.90 in 8.0 mi Calm Calm - N/A   Mostly Cloudy